Cloud_Cover
100 100 100 79 82 100 69 86 96 80 100 100 100 100 100 100 63 100 100 100 29 18 100 5 3 2 0 5 3 0 2 1 4 0 65 100 100 100 100 100 72 5 52 100 100 95 100
100 100 100 100 100 99 55 5 8 63 100 100 100 100 100 100 100 100 100 86 5 5 14 40 5 0 5 55 0 0 0 3 5 0 100 94 100 100 100 100 48 0 98 93 100 100 100
100 100 99 98 100 100 100 47 18 26 100 100 100 100 100 100 100 100 100 36 5 5 5 4 5 4 0 1 0 5 5 5 2 4 100 100 100 100 100 100 19 0 98 100 100 100 100
5 72 100 100 100 100 100 100 77 38 69 100 100 100 100 100 100 100 100 95 5 5 8 5 3 0 28 0 1 4 5 5 2 96 100 99 100 100 100 100 41 32 100 100 100 100 100
0 4 9 80 100 100 89 100 100 82 77 100 100 100 100 100 100 100 100 66 16 5 14 17 18 4 9 0 1 4 5 5 7 99 100 100 100 100 100 92 92 100 100 99 100 100 98
93 100 32 3 28 100 100 95 100 35 100 100 100 100 100 100 100 100 100 100 39 5 5 0 0 14 0 0 3 5 5 56 34 100 100 100 100 100 100 95 95 97 100 100 100 100 100
100 100 100 99 11 16 84 88 64 92 100 100 100 100 100 100 100 100 100 100 48 5 0 0 0 0 0 4 68 98 64 5 8 100 100 100 100 82 100 100 100 100 100 100 100 100 100
87 83 100 100 100 43 9 68 27 99 100 100 100 100 100 100 100 100 100 99 20 5 1 0 1 0 4 93 90 63 6 57 85 100 100 100 100 93 100 100 100 100 100 100 100 100 100
100 100 28 100 100 95 1 6 5 97 100 100 100 100 100 100 100 100 100 96 5 5 5 0 4 5 5 76 38 52 40 64 94 100 100 99 100 57 100 100 100 100 90 100 100 100 100
100 72 22 35 80 98 73 19 18 52 100 100 100 100 100 100 100 100 100 77 5 5 5 0 0 19 54 53 100 98 100 100 94 100 100 100 100 98 100 100 100 100 100 100 100 100 100
52 11 49 67 100 100 2 96 58 16 100 100 100 100 100 100 100 100 100 88 5 5 3 0 0 5 76 100 97 100 100 100 100 100 82 100 100 99 100 100 100 100 97 100 100 100 100
33 34 7 9 55 100 15 100 95 30 100 100 100 100 100 100 100 100 100 54 25 10 0 3 0 24 84 100 100 100 100 100 100 100 100 100 100 100 100 100 100 100 100 100 100 100 100
57 100 14 3 57 68 90 100 44 83 100 100 100 100 100 100 100 100 100 46 53 7 4 0 1 54 80 70 100 100 100 100 100 100 90 100 100 100 100 85 100 100 100 100 100 100 100
99 100 55 89 100 100 100 100 89 100 100 100 100 100 100 100 100 100 100 100 94 5 5 0 5 5 8 88 90 100 100 99 87 100 100 100 100 100 57 49 79 100 100 100 100 100 100
95 100 64 100 100 100 100 100 100 100 100 100 100 100 100 100 100 100 100 100 100 4 0 0 3 5 5 65 60 94 99 100 100 100 100 100 100 100 50 5 100 74 100 100 100 100 100
44 30 42 96 100 100 100 100 98 100 100 100 100 100 100 100 100 100 100 100 80 0 0 0 4 6 14 5 10 79 24 69 100 100 100 100 100 98 52 25 100 100 98 95 100 100 99
17 98 100 100 77 100 100 83 55 100 100 100 100 100 100 100 100 100 100 100 5 0 0 0 3 5 5 5 86 72 6 77 100 100 100 100 96 86 99 83 62 62 97 95 98 98 100
94 75 70 100 100 100 100 99 100 100 100 100 100 100 100 100 100 100 100 83 3 0 0 0 5 5 5 7 5 5 98 40 96 88 53 6 15 59 57 13 5 5 6 7 97 100 100
100 54 66 5 97 100 100 100 100 100 100 100 100 100 100 100 100 100 100 59 3 0 0 1 5 5 5 5 71 13 5 57 5 5 5 34 48 34 12 99 57 63 10 5 46 91 99
99 84 11 5 9 73 100 100 100 100 100 100 100 100 100 100 100 100 100 33 2 4 0 4 5 5 5 5 11 85 5 5 5 3 0 2 2 5 5 5 8 9 17 5 9 73 92
86 100 31 5 11 100 100 100 100 100 100 100 100 100 100 100 100 100 94 40 5 5 4 5 5 5 5 5 5 95 5 5 4 1 0 1 4 5 5 5 5 15 63 87 85 8 5
93 100 42 100 100 100 100 100 100 100 100 100 100 100 100 100 100 100 92 99 89 5 5 5 5 5 2 2 4 6 100 5 5 5 0 0 8 5 5 5 5 5 5 6 84 50 63
100 98 95 63 100 100 100 100 100 100 100 100 100 100 100 100 100 93 52 5 9 5 2 1 0 1 5 5 4 5 32 24 5 5 5 0 4 5 5 5 5 5 0 4 5 3 43
85 5 30 100 100 100 100 100 100 100 100 100 100 100 100 100 100 65 20 5 5 5 2 5 5 5 5 5 5 63 65 26 5 5 5 5 5 9 5 5 4 0 0 2 4 5 5
86 36 78 100 100 100 100 100 100 100 100 100 100 100 100 100 75 56 84 40 37 5 5 5 5 5 5 5 5 6 21 41 19 5 5 5 5 6 4 4 3 0 2 0 1 3 5
100 100 100 100 100 100 100 100 100 100 100 100 100 100 100 76 62 50 100 82 42 6 5 5 5 5 5 5 4 5 17 5 5 8 97 5 5 5 5 5 5 4 5 5 4 5 5
100 100 100 100 100 100 100 100 100 100 100 100 92 100 100 57 25 100 100 59 98 6 5 5 5 5 5 5 5 5 5 5 5 5 35 32 5 5 5 5 2 0 0 3 3 3 5
100 100 100 100 100 100 100 100 100 100 100 100 100 100 100 74 22 93 100 100 41 6 5 6 5 10 5 5 5 5 5 5 4 4 2 5 6 5 5 5 4 0 4 4 0 5 5
100 80 99 100 100 100 100 100 100 100 100 100 100 100 100 31 12 75 48 66 9 5 5 0 1 3 5 5 5 4 5 5 5 5 0 3 2 4 5 4 0 0 0 3 1 5 1